Theta_e
346 345 343 343 344 345 345 344 342 340 341 345 345 345 346 346 347 347 346 355 358 360 359 362 360 360 358 357 357 357 356 356 356 357 357 358 359 358 358 357 357 357 356
348 345 343 344 343 344 345 344 342 342 342 344 343 345 346 347 347 346 347 346 357 357 359 359 360 361 360 360 360 360 359 360 359 359 359 361 361 361 360 358 359 358 357
349 346 344 343 345 345 345 344 344 343 343 345 344 344 345 346 346 347 346 345 348 360 358 359 359 360 362 362 363 364 364 364 363 363 363 362 362 362 362 361 359 360 359
348 346 344 344 346 347 346 345 344 343 340 341 343 344 345 344 346 346 345 347 345 348 356 359 358 358 360 359 362 364 364 363 362 364 364 364 362 362 361 362 361 361 360
349 347 346 346 345 345 346 345 344 344 343 341 341 343 344 344 346 348 344 345 346 348 346 354 357 358 358 359 361 363 363 362 362 362 364 363 362 361 361 361 362 361 360
350 348 348 346 344 343 343 343 343 343 344 343 346 345 345 345 346 344 343 346 346 347 347 347 348 352 359 360 361 362 363 363 363 363 363 363 362 361 362 362 361 361 361
350 349 348 346 345 343 341 341 343 342 342 343 339 338 339 343 344 344 345 343 345 347 347 347 347 348 351 358 359 360 363 364 364 365 364 361 361 361 360 359 359 360 360
351 350 348 348 347 345 343 343 344 340 342 343 337 333 330 331 339 343 343 345 344 347 347 348 347 347 349 350 353 359 361 362 364 364 363 362 361 361 360 358 357 358 359
349 350 349 349 348 348 345 345 345 342 337 341 341 336 328 325 328 335 341 344 345 343 346 348 348 348 350 349 353 356 358 358 362 364 363 361 360 359 360 359 358 358 358
350 349 348 345 345 347 347 346 347 346 341 337 340 343 337 333 328 325 333 338 342 343 343 346 347 348 350 350 352 353 357 359 360 361 360 360 361 361 361 360 360 359 358
353 351 349 346 346 346 348 346 345 345 344 340 338 337 339 337 333 330 326 331 336 341 344 345 346 348 349 350 349 351 356 356 357 359 360 358 360 362 364 363 363 360 360
347 348 347 345 344 345 346 347 346 344 345 344 341 340 338 335 334 332 329 330 331 335 338 341 343 345 348 349 351 352 353 353 355 355 357 357 358 360 364 365 365 364 363
344 347 344 342 341 341 343 347 346 346 345 343 343 343 343 340 339 337 332 330 330 334 337 342 344 345 348 347 348 353 353 352 351 350 351 353 354 357 359 363 363 365 364
345 346 344 343 342 342 341 342 344 347 346 345 344 343 343 344 341 339 335 332 329 332 333 335 341 345 347 348 349 353 351 349 348 347 347 349 351 353 355 356 356 357 358
345 345 345 343 342 340 339 337 338 343 345 345 346 345 343 344 343 342 340 338 333 326 328 333 335 340 342 343 346 346 347 348 347 346 345 345 346 348 351 352 352 352 352
342 341 342 340 338 338 338 341 342 344 346 345 347 344 344 345 343 343 342 340 336 334 330 334 337 340 342 346 345 347 348 348 346 344 344 343 344 345 346 347 347 348 348
342 343 339 339 339 342 346 345 344 345 345 344 346 345 345 345 343 342 342 342 340 336 333 336 340 342 342 342 345 346 350 347 346 343 343 342 341 342 343 344 344 344 345
338 341 343 343 345 345 345 343 343 345 345 344 345 345 345 348 345 344 342 342 341 340 337 334 337 340 340 343 343 342 348 354 349 346 341 340 339 338 338 339 339 339 339
339 342 344 343 344 344 345 345 344 346 345 344 344 344 344 345 342 342 342 341 342 343 340 336 335 339 342 346 345 344 346 346 350 348 340 338 337 337 335 334 334 333 332
342 343 342 343 345 346 345 345 344 344 343 343 342 344 344 344 344 343 343 341 340 339 340 338 336 337 339 344 343 341 339 342 343 350 349 345 342 339 336 333 332 331 327
338 338 338 340 343 346 349 345 343 343 344 344 347 347 346 346 346 344 345 343 342 340 339 338 336 334 335 338 337 338 338 339 340 343 344 342 341 338 337 334 337 336 330
334 335 333 335 336 342 338 338 340 341 341 341 341 343 343 345 344 341 341 341 343 341 338 338 336 333 333 334 335 336 336 334 332 336 339 332 334 333 336 336 336 334 331
332 331 331 332 333 336 335 334 339 340 340 340 340 340 341 348 345 345 340 337 337 337 340 341 338 336 335 336 336 332 335 333 330 333 331 327 326 326 327 327 333 331 329
329 329 329 330 331 335 330 329 334 334 335 336 337 338 338 341 342 342 343 342 342 341 340 341 342 342 341 342 340 337 333 333 333 333 328 323 323 323 328 331 330 329 327
327 327 328 328 328 330 327 327 328 332 333 332 334 334 335 336 335 332 335 335 336 337 338 333 335 335 335 336 340 336 332 330 328 328 328 325 325 326 328 329 329 323 321
326 327 327 327 327 328 326 324 325 329 329 331 332 334 331 333 327 324 333 333 330 331 333 335 337 334 332 336 335 341 340 334 331 324 327 327 326 328 324 327 330 325 325
Wind_Speed
5 3 4 3 4 3 3 4 4 4 4 5 5 5 5 5 5 4 3 14 14 15 19 17 17 17 17 17 17 16 15 14 13 13 13 13 13 12 11 10 9 8 8
5 4 4 4 4 4 4 4 4 4 4 4 5 5 6 5 6 6 4 5 16 16 17 19 18 19 19 18 18 18 17 16 15 15 14 13 11 11 10 8 9 8 9
7 6 4 4 5 4 4 3 4 3 4 3 5 4 4 6 6 6 6 5 7 17 18 19 19 19 19 19 18 19 18 17 17 16 15 14 13 12 9 10 11 10 9
8 5 4 5 4 3 3 3 4 4 4 4 3 4 4 4 7 8 7 7 6 7 12 20 19 17 18 20 19 19 18 17 17 15 15 13 13 12 11 10 10 10 10
8 8 5 5 5 4 4 4 4 3 3 4 4 4 4 5 5 5 7 7 8 6 4 10 16 17 19 20 20 20 19 18 18 18 16 15 14 14 13 13 12 12 11
8 7 6 5 5 3 3 3 4 3 3 3 4 4 4 4 4 4 6 7 7 7 7 7 5 9 18 19 19 19 20 20 19 19 17 16 15 15 15 13 13 13 13
8 8 6 5 5 6 7 5 3 5 4 3 1 3 4 6 6 5 5 5 6 7 6 6 5 4 6 19 19 19 20 20 20 19 19 19 18 17 17 15 15 15 14
8 8 8 7 7 6 5 6 6 3 4 5 3 2 3 4 3 5 4 5 6 4 6 8 8 8 6 6 13 22 22 21 22 21 20 19 17 17 18 17 17 17 16
8 10 8 7 7 6 6 7 7 7 4 4 5 4 2 4 2 2 4 5 5 4 6 7 9 9 9 7 11 14 21 21 22 23 22 21 20 20 20 20 19 19 18
9 9 9 7 5 4 7 7 6 7 5 5 2 5 2 3 2 4 2 3 4 6 6 6 7 9 9 8 13 16 16 19 21 23 23 22 21 20 21 22 21 21 19
7 10 8 5 5 3 7 7 6 8 7 4 4 3 5 2 1 3 4 3 1 5 6 8 7 6 8 9 8 11 17 18 19 21 23 23 22 21 22 22 22 20 19
4 7 9 7 6 5 5 6 6 6 6 5 4 4 4 4 4 4 4 5 4 4 4 6 7 7 7 8 12 16 16 17 19 19 20 23 20 20 22 23 23 22 21
7 11 9 6 4 3 2 4 5 7 6 5 6 5 4 5 4 3 3 2 3 3 3 4 6 7 7 8 11 14 15 17 17 17 17 18 13 19 19 21 22 22 22
5 2 5 7 5 3 3 4 6 6 5 7 8 6 4 6 5 4 4 4 2 2 2 5 2 6 5 7 11 14 10 14 14 15 16 18 24 19 18 18 17 18 18
4 4 2 3 3 3 2 6 4 8 6 8 8 7 7 6 5 5 4 4 5 2 3 3 3 3 4 4 9 6 6 9 13 15 17 16 15 16 18 16 16 15 13
0 1 2 4 4 2 3 7 8 8 6 5 5 6 5 5 5 4 5 4 4 4 4 4 3 4 4 4 6 7 8 11 12 11 11 13 15 16 15 15 13 14 14
4 3 2 4 4 4 5 5 6 6 5 5 5 6 6 4 4 3 4 4 5 4 5 3 4 2 3 5 4 4 5 5 5 11 11 12 12 12 13 14 14 15 14
6 6 5 4 5 4 5 6 7 4 5 4 5 4 6 7 6 4 4 6 5 6 4 6 3 3 6 4 3 4 4 4 5 9 11 12 13 13 13 13 13 14 14
5 5 6 6 6 7 6 5 7 6 3 2 3 5 5 6 6 6 6 5 5 5 5 4 4 3 4 2 1 3 3 3 3 7 10 10 12 12 12 13 14 14 13
5 6 3 5 6 8 5 6 7 6 6 5 6 7 6 6 8 8 7 7 6 5 4 3 4 3 4 3 2 2 4 1 4 4 6 7 7 10 12 12 14 13 13
5 4 6 7 6 4 2 3 5 3 5 6 6 6 7 8 10 8 5 5 4 4 4 4 4 3 3 3 4 2 4 2 3 3 2 3 3 3 4 6 7 12 13
5 6 6 6 6 4 8 6 5 4 4 4 5 6 6 8 7 10 11 8 8 5 5 4 3 5 5 4 3 4 3 2 2 1 3 2 3 3 3 4 8 10 13
4 5 6 6 7 6 8 9 8 4 4 5 5 5 5 4 6 5 6 9 9 11 10 5 6 6 5 6 5 3 4 4 4 3 3 2 1 3 2 3 6 8 11
4 3 5 6 6 7 11 11 11 6 5 6 6 6 5 6 5 5 4 4 5 5 6 6 8 8 7 5 6 6 6 4 0 2 2 2 1 3 2 1 2 1 4
4 4 4 6 6 8 11 13 10 6 6 7 6 6 5 6 7 7 4 5 5 5 5 10 10 11 10 11 7 4 3 3 3 4 4 4 3 2 1 2 1 3 6
5 5 6 6 8 8 10 12 9 4 6 4 5 6 9 7 8 7 5 4 5 5 4 4 4 5 5 5 7 6 3 5 2 1 4 5 4 4 1 2 2 2 2
Wind_Direction
220 187 208 206 224 204 208 221 220 235 249 232 221 212 222 224 212 211 213 236 236 215 212 214 217 218 219 215 220 215 212 212 214 220 228 231 237 223 219 219 229 242 255
211 215 214 220 225 206 204 205 215 219 237 227 243 220 225 225 216 210 223 224 238 226 218 217 220 223 223 221 222 224 222 218 220 223 229 236 245 250 238 238 249 242 250
215 208 222 224 223 210 213 211 230 239 252 245 241 230 225 218 221 218 224 229 234 238 227 225 223 226 222 225 228 226 225 222 222 222 230 233 239 241 245 233 247 247 251
208 205 213 226 224 191 182 202 214 230 228 222 238 239 231 228 233 224 218 225 213 220 231 228 225 225 223 230 233 231 231 234 234 229 227 229 233 236 241 238 231 240 249
206 211 219 227 211 203 195 192 202 203 222 229 235 235 234 227 225 237 231 230 222 202 205 227 226 225 229 235 234 233 232 230 233 236 230 230 234 238 239 241 238 238 242
210 207 219 223 189 185 217 209 212 206 219 224 240 241 243 235 227 228 232 228 220 208 207 213 221 231 227 231 234 235 233 232 230 231 234 236 235 238 240 237 236 236 236
203 210 210 197 185 198 203 203 197 219 231 200 239 272 262 234 231 226 235 220 220 212 200 206 212 218 225 226 229 234 235 235 235 234 232 233 234 233 234 237 237 238 241
203 206 210 208 195 199 198 198 191 204 217 177 178 134 304 317 245 229 208 223 225 207 211 211 201 218 214 216 223 227 228 231 233 237 239 237 235 235 232 233 234 236 239
203 206 208 204 209 197 213 207 198 203 218 198 208 153 159 235 312 302 233 225 215 202 224 217 211 206 210 212 222 228 233 231 233 234 235 235 235 234 233 233 232 233 235
204 200 204 193 210 218 216 215 203 212 196 204 195 237 225 152 155 321 298 247 208 219 215 216 218 215 209 211 216 220 223 231 233 238 239 233 236 234 232 233 235 234 233
224 190 182 189 233 212 244 224 227 208 206 176 179 165 221 200 166 163 273 294 297 232 229 227 217 210 217 215 216 222 223 227 232 232 238 239 234 232 231 233 235 235 232
229 202 165 159 203 208 228 248 237 241 222 214 207 192 186 174 192 179 221 249 237 273 227 230 218 215 212 212 215 213 220 233 235 236 234 238 234 228 232 234 235 234 236
255 238 170 151 145 121 39 306 254 237 221 212 204 213 204 219 169 187 168 239 237 284 281 234 215 210 218 216 226 229 230 237 240 235 229 230 263 237 229 230 231 232 236
279 164 141 138 157 137 71 334 317 265 231 233 225 199 209 215 191 183 180 161 284 277 285 252 266 227 213 220 228 226 230 231 227 231 227 217 222 230 228 231 233 238 233
6 29 100 162 166 102 75 277 250 260 241 233 232 215 215 227 201 195 182 169 166 244 276 293 266 244 243 231 239 240 241 244 234 228 228 227 226 225 228 223 223 225 228
320 238 167 165 181 122 249 251 244 233 224 234 226 211 222 238 218 198 195 187 194 194 256 218 258 245 219 232 241 232 238 239 242 235 228 223 224 226 226 226 223 220 222
261 252 212 173 182 207 231 274 263 260 240 244 229 196 218 225 227 217 197 185 203 173 223 277 247 239 253 232 254 238 237 225 221 216 218 221 219 222 222 221 217 219 221
281 265 239 236 180 195 220 253 282 277 255 274 269 216 226 205 215 214 214 217 195 192 181 221 249 253 226 212 206 230 228 222 211 214 209 213 216 221 221 220 222 224 222
305 286 261 255 239 225 226 235 258 278 161 125 266 270 238 206 224 220 215 208 202 203 196 190 242 248 269 212 8 243 243 265 234 226 221 222 228 235 231 224 222 220 218
4 357 334 267 254 265 243 232 232 234 221 213 243 249 241 216 226 225 211 209 207 196 186 195 217 245 247 249 218 230 304 245 265 223 214 215 219 228 234 227 225 209 208
358 1 354 345 339 327 296 263 269 251 226 236 240 242 247 240 229 213 199 206 208 205 192 203 218 216 231 217 208 200 226 254 273 223 218 219 217 225 233 208 224 218 210
355 349 346 336 330 317 332 321 285 283 288 271 268 277 270 270 256 232 216 198 194 198 222 190 204 213 225 216 201 205 196 181 279 253 187 249 170 221 233 217 205 216 216
331 331 327 328 323 311 316 314 302 295 284 275 273 281 288 271 269 251 236 230 235 244 238 214 225 217 226 207 178 201 215 189 202 237 172 223 177 247 227 248 225 222 225
307 296 298 305 302 293 295 295 292 285 276 271 265 266 270 279 272 278 284 285 268 252 228 221 234 245 226 211 195 185 194 202 252 249 160 209 158 241 304 237 59 221 228
300 293 291 293 288 286 284 287 291 280 264 258 252 251 249 266 274 278 275 272 280 277 256 245 241 250 250 244 211 143 181 143 235 243 191 154 218 231 210 250 140 80 74
284 299 309 305 293 291 299 283 282 260 269 274 271 256 222 223 259 259 224 240 264 268 291 300 281 263 237 237 224 216 183 198 181 259 212 175 167 160 261 237 190 170 114